Milan, NH

1:04 AM EST on February 23, 2017 (GMT -0500)
Berlin Municipal

Weather History for KBML - February, 2013

Change the Weather History Date:

Sunday, February 3, 2013

  Actual Average Record
Temperature  
Mean Temperature 10 °F -  
Max Temperature 25 °F 26 °F 46 °F (2006)
Min Temperature -5 °F 1 °F -16 °F (2002)
Degree Days  
Heating Degree Days 55    
Moisture  
Dew Point 2 °F    
Average Humidity 72    
Maximum Humidity 88    
Minimum Humidity 41    
Precipitation  
Precipitation 0.00 in - - ()
Sea Level Pressure  
Sea Level Pressure 29.90 in    
Wind  
Wind Speed 0 mph (South)    
Max Wind Speed 5 mph    
Max Gust Speed -    
Visibility 10 miles    
Events      
Averages and records for this station are not official NWS values.
T = Trace of Precipitation, MM = Missing Value Source: NWS Daily Summary

Daily Weather History Graph

Daily Weather History Graph

Search for Another Location

Airport or City:

Trip Planner

Search our weather history database for the weather conditions in past years. The results will help you decide how hot, cold, wet, or windy it might be!

Date:

Astronomy

Feb. 03, 2013 Rise Set
Actual Time 7:00 AM EST 4:56 PM EST
Civil Twilight 6:30 AM EST 5:27 PM EST
Nautical Twilight 5:55 AM EST 6:02 PM EST
Astronomical Twilight 5:21 AM EST 6:36 PM EST
Moon 12:25 AM EST (2/3) 10:30 AM EST (2/3)
Length of Visible Light 10h 57m
Length of Day
9h 56m
Waning Gibbous, 49% of the Moon is Illuminated
Feb 3
Waning Gibbous
Feb 10
New
Feb 17
First Quarter
Feb 25
Full
Mar 4
Last Quarter

Hourly Weather History & Observations

Time (EST) Temp. Windchill Dew Point Humidity Pressure Visibility Wind Dir Wind Speed Gust Speed Precip Events Conditions
12:52 AM 9.0 °F - 5.0 °F 84% 30.03 in 10.0 mi Calm Calm - 0.00 in   Overcast
1:52 AM 3.9 °F - -0.0 °F 84% 30.03 in 10.0 mi Calm Calm - N/A   Clear
2:08 AM 3.2 °F - -2.2 °F 78% 29.96 in 10.0 mi Calm Calm - N/A   Scattered Clouds
2:52 AM 1.0 °F - -4.0 °F 79% 30.03 in 10.0 mi Calm Calm - N/A   Partly Cloudy
4:04 AM -0.4 °F - -5.8 °F 78% 29.94 in 10.0 mi Calm Calm - N/A   Scattered Clouds
4:52 AM -0.9 °F - -6.0 °F 79% 30.02 in 10.0 mi Calm Calm - N/A   Clear
5:52 AM -2.9 °F - -9.0 °F 75% 30.02 in 10.0 mi Calm Calm - N/A   Clear
6:52 AM -5.1 °F - -9.9 °F 80% 30.03 in 10.0 mi Calm Calm - N/A   Clear
7:52 AM -4.0 °F - -9.0 °F 79% 30.03 in 10.0 mi Calm Calm - N/A   Clear
8:52 AM 3.9 °F - 1.0 °F 88% 30.01 in 9.0 mi Calm Calm - N/A   Clear
9:52 AM 10.0 °F - 3.9 °F 76% 30.00 in 10.0 mi Calm Calm - N/A   Clear
10:52 AM 17.1 °F - 8.1 °F 68% 29.97 in 10.0 mi Calm Calm - N/A   Clear
11:52 AM 19.9 °F - 8.1 °F 60% 29.92 in 10.0 mi Calm Calm - N/A   Clear
12:52 PM 21.9 °F 17.2 °F 8.1 °F 55% 29.88 in 10.0 mi Variable 3.5 mph - N/A   Clear
1:52 PM 25.0 °F 20.7 °F 6.1 °F 45% 29.83 in 10.0 mi Variable 3.5 mph - N/A   Clear
2:52 PM 25.0 °F - 3.9 °F 41% 29.83 in 10.0 mi Calm Calm - N/A   Clear
3:52 PM 24.1 °F 18.2 °F 3.9 °F 42% 29.81 in 10.0 mi North 4.6 mph - N/A   Clear
4:52 PM 21.0 °F - 3.0 °F 46% 29.81 in 10.0 mi Calm Calm - N/A   Scattered Clouds
5:52 PM 16.0 °F - 7.0 °F 68% 29.81 in 10.0 mi Calm Calm - N/A   Overcast
6:52 PM 12.9 °F - 7.0 °F 77% 29.79 in 10.0 mi Calm Calm - N/A   Scattered Clouds
7:52 PM 7.0 °F - 3.0 °F 84% 29.79 in 10.0 mi Calm Calm - N/A   Partly Cloudy
8:52 PM 8.1 °F - 3.9 °F 83% 29.79 in 10.0 mi Calm Calm - N/A   Overcast
9:52 PM 10.0 °F - 5.0 °F 80% 29.76 in 10.0 mi Calm Calm - N/A   Overcast
10:52 PM 10.0 °F - 6.1 °F 84% 29.74 in 10.0 mi Calm Calm - N/A   Overcast
11:52 PM 10.0 °F - 5.0 °F 80% 29.71 in 10.0 mi Calm Calm - N/A   Overcast